Location: *
(45.5667°S, 177.5167°W)
Time: 16:11:06
(UTC+00:00)

Lacrosse 5 rocket - Pass Details

Date: 29 May 2022
Orbit: 456 x 629 km, 57.0° (Epoch: 28 June)

Event Time Altitude Azimuth Distance (km) Brightness Sun altitude
Rises 05:04:41 0° 236° (SW) 2,752 5.4 -8.2°
Reaches altitude 10° 05:07:39 10° 215° (SW) 1,817 4.1 -8.7°
Maximum altitude 05:10:22 17° 173° (S) 1,396 3.1 -9.1°
Enters shadow 05:12:45 11° 134° (SE) 1,686 3.2 -9.5°
